Terminal Aerodrome Forecast
Issued by NWS Charleston, WV

Current Version | Previous Version | Graphics & Text | Print | Product List | Glossary On
Versions: 1 2 3 4 5 6 7 8 9 10 11 12 13 14 15 16 17 18 19 20 21 22 23 24 25
000
FTUS41 KRLX 282100 AAA
TAFEKN
TAF AMD
KEKN 282152Z 2822/2918 30008KT P6SM VCSH BKN020 OVC030
     FM290500 31005KT 3SM BR BKN080
     FM290700 30004KT 1SM BR SCT003
     FM290800 VRB03KT 1/4SM FG SCT001
     FM291300 00000KT 3SM BR SCT070
     FM291400 31004KT P6SM BKN045=

USA.gov is the U.S. government's official web portal to all federal, state and local government web resources and services.